sat.trackr.live / text

‹ back to catalog

STARLINK-3305

NORAD 50166 · 2021-125L

PAYLOAD ACTIVE UNKNOWN

§ Identity

Operator
Country
US
Launch date
2021-12-18
Launch site
AFWTR
Launch vehicle
Mass (kg)
RCS (m²)

Purposes: comms

External: N2YO · Heavens-Above · Gunter

§ Orbital elements

Epoch: 2026-09-13T23:30:13.812192Z

Period
94.01 min
Inclination
53.1601°
Eccentricity
0.0001169
Mean motion
15.31700687 rev/d
Perigee alt
469.9 km
Apogee alt
471.5 km
Semi-major
6,848.9 km
B*
9.5408e-6
RAAN
112.1419°
Arg perigee
98.3565°
Mean anomaly
261.7569°
Rev number
26,517

§ Raw data

STARLINK-33051 50166U 21125L   26256.97932653 -.00000069  00000+0  95408-5 0  99902 50166  53.1601 112.1419 0001169  98.3565 261.7569 15.31700687265173

JSON: /api/v1/satellites/50166 · /tle

For live sub-satellite position, see the globe view (requires WebGL).

§ Visibility from observer

Set your observer location to see the next 7 days of passes ≥ 10°. The values pass through the URL so the page stays shareable.

No JS? Fill the form by hand. The geolocation button needs JavaScript.